Year,Month,Day,Hour,Minute,Value (Times are PST for temperature in C)
2012,09,17,00,00,12.60
2012,09,17,00,01,12.50
2012,09,17,00,02,12.50
2012,09,17,00,03,12.50
2012,09,17,00,04,12.50
2012,09,17,00,05,12.40
2012,09,17,00,06,12.40
2012,09,17,00,07,12.40
2012,09,17,00,08,12.40
2012,09,17,00,09,12.30
2012,09,17,00,10,12.30
2012,09,17,00,11,12.30
2012,09,17,00,12,12.30
2012,09,17,00,13,12.30
2012,09,17,00,14,12.30
2012,09,17,00,15,12.30
2012,09,17,00,16,12.30
2012,09,17,00,17,12.30
2012,09,17,00,18,12.30
2012,09,17,00,19,12.20
2012,09,17,00,20,12.20
2012,09,17,00,21,12.20
2012,09,17,00,22,12.20
2012,09,17,00,23,12.20
2012,09,17,00,24,12.20
2012,09,17,00,25,12.20
2012,09,17,00,26,12.20
2012,09,17,00,27,12.10
2012,09,17,00,28,12.10
2012,09,17,00,29,12.10
2012,09,17,00,30,12.10
2012,09,17,00,31,12.10
2012,09,17,00,32,12.10
2012,09,17,00,33,12.00
2012,09,17,00,34,12.00
2012,09,17,00,35,12.00
2012,09,17,00,36,12.00
2012,09,17,00,37,12.00
2012,09,17,00,38,12.00
2012,09,17,00,39,11.90
2012,09,17,00,40,11.90
2012,09,17,00,41,11.90
2012,09,17,00,42,11.90
2012,09,17,00,43,11.90
2012,09,17,00,44,11.90
2012,09,17,00,45,11.80
2012,09,17,00,46,11.80
2012,09,17,00,47,11.80
2012,09,17,00,48,11.80
2012,09,17,00,49,11.80
2012,09,17,00,50,11.80
2012,09,17,00,51,11.80
2012,09,17,00,52,11.80
2012,09,17,00,53,11.80
2012,09,17,00,54,11.80
2012,09,17,00,55,11.80
2012,09,17,00,56,11.80
2012,09,17,00,57,11.80
2012,09,17,00,58,11.80
2012,09,17,00,59,11.80
2012,09,17,01,00,11.80
2012,09,17,01,01,11.80
2012,09,17,01,02,11.80
2012,09,17,01,03,11.70
2012,09,17,01,04,11.70
2012,09,17,01,05,11.70
2012,09,17,01,06,11.70
2012,09,17,01,07,11.60
2012,09,17,01,08,11.60
2012,09,17,01,09,11.60
2012,09,17,01,10,11.60
2012,09,17,01,11,11.60
2012,09,17,01,12,11.60
2012,09,17,01,13,11.60
2012,09,17,01,14,11.60
2012,09,17,01,15,11.60
2012,09,17,01,16,11.50
2012,09,17,01,17,11.40
2012,09,17,01,18,11.40
2012,09,17,01,19,11.40
2012,09,17,01,20,11.40
2012,09,17,01,21,11.40
2012,09,17,01,22,11.40
2012,09,17,01,23,11.40
2012,09,17,01,24,11.40
2012,09,17,01,25,11.40
2012,09,17,01,26,11.40
2012,09,17,01,27,11.40
2012,09,17,01,28,11.40
2012,09,17,01,29,11.40
2012,09,17,01,30,11.40
2012,09,17,01,31,11.30
2012,09,17,01,32,11.30
2012,09,17,01,33,11.30
2012,09,17,01,34,11.30
2012,09,17,01,35,11.30
2012,09,17,01,36,11.20
2012,09,17,01,37,11.20
2012,09,17,01,38,11.20
2012,09,17,01,39,11.20
2012,09,17,01,40,11.20
2012,09,17,01,41,11.20
2012,09,17,01,42,11.10
2012,09,17,01,43,11.10
2012,09,17,01,44,11.10
2012,09,17,01,45,11.10
2012,09,17,01,46,11.10
2012,09,17,01,47,11.10
2012,09,17,01,48,11.10
2012,09,17,01,49,11.10
2012,09,17,01,50,11.10
2012,09,17,01,51,11.10
2012,09,17,01,52,11.10
2012,09,17,01,53,11.10
2012,09,17,01,54,11.10
2012,09,17,01,55,11.10
2012,09,17,01,56,11.10
2012,09,17,01,57,11.10
2012,09,17,01,58,11.10
2012,09,17,01,59,11.20
2012,09,17,02,00,11.20
2012,09,17,02,01,11.20
2012,09,17,02,02,11.20
2012,09,17,02,03,11.20
2012,09,17,02,04,11.20
2012,09,17,02,05,11.20
2012,09,17,02,06,11.30
2012,09,17,02,07,11.30
2012,09,17,02,08,11.30
2012,09,17,02,09,11.30
2012,09,17,02,10,11.30
2012,09,17,02,11,11.30
2012,09,17,02,12,11.30
2012,09,17,02,13,11.30
2012,09,17,02,14,11.20
2012,09,17,02,15,11.20
2012,09,17,02,16,11.20
2012,09,17,02,17,11.20
2012,09,17,02,18,11.20
2012,09,17,02,19,11.10
2012,09,17,02,20,11.10
2012,09,17,02,21,11.10
2012,09,17,02,22,11.10
2012,09,17,02,23,11.10
2012,09,17,02,24,11.10
2012,09,17,02,25,11.10
2012,09,17,02,26,11.10
2012,09,17,02,27,11.00
2012,09,17,02,28,10.90
2012,09,17,02,29,10.90
2012,09,17,02,30,10.90
2012,09,17,02,31,10.90
2012,09,17,02,32,10.90
2012,09,17,02,33,10.90
2012,09,17,02,34,10.90
2012,09,17,02,35,10.90
2012,09,17,02,36,10.90
2012,09,17,02,37,10.90
2012,09,17,02,38,10.90
2012,09,17,02,39,10.90
2012,09,17,02,40,10.80
2012,09,17,02,41,10.80
2012,09,17,02,42,10.80
2012,09,17,02,43,10.80
2012,09,17,02,44,10.80
2012,09,17,02,45,10.80
2012,09,17,02,46,10.80
2012,09,17,02,47,10.80
2012,09,17,02,48,10.70
2012,09,17,02,49,10.70
2012,09,17,02,50,10.70
2012,09,17,02,51,10.70
2012,09,17,02,52,10.70
2012,09,17,02,53,10.70
2012,09,17,02,54,10.60
2012,09,17,02,55,10.60
2012,09,17,02,56,10.60
2012,09,17,02,57,10.60
2012,09,17,02,58,10.60
2012,09,17,02,59,10.60
2012,09,17,03,00,10.60
2012,09,17,03,01,10.60
2012,09,17,03,02,10.60
2012,09,17,03,03,10.60
2012,09,17,03,04,10.60
2012,09,17,03,05,10.60
2012,09,17,03,06,10.60
2012,09,17,03,07,10.60
2012,09,17,03,08,10.60
2012,09,17,03,09,10.60
2012,09,17,03,10,10.60
2012,09,17,03,11,10.60
2012,09,17,03,12,10.60
2012,09,17,03,13,10.60
2012,09,17,03,14,10.70
2012,09,17,03,15,10.80
2012,09,17,03,16,10.80
2012,09,17,03,17,10.90
2012,09,17,03,18,11.00
2012,09,17,03,19,11.10
2012,09,17,03,20,11.10
2012,09,17,03,21,11.10
2012,09,17,03,22,11.20
2012,09,17,03,23,11.20
2012,09,17,03,24,11.20
2012,09,17,03,25,11.20
2012,09,17,03,26,11.20
2012,09,17,03,27,11.20
2012,09,17,03,28,11.20
2012,09,17,03,29,11.10
2012,09,17,03,30,11.10
2012,09,17,03,31,11.10
2012,09,17,03,32,11.10
2012,09,17,03,33,11.10
2012,09,17,03,34,11.10
2012,09,17,03,35,11.10
2012,09,17,03,36,11.10
2012,09,17,03,37,11.10
2012,09,17,03,38,11.10
2012,09,17,03,39,11.10
2012,09,17,03,40,11.10
2012,09,17,03,41,10.90
2012,09,17,03,42,10.90
2012,09,17,03,43,10.90
2012,09,17,03,44,10.90
2012,09,17,03,45,10.90
2012,09,17,03,46,10.90
2012,09,17,03,47,10.80
2012,09,17,03,48,10.70
2012,09,17,03,49,10.70
2012,09,17,03,50,10.70
2012,09,17,03,51,10.60
2012,09,17,03,52,10.60
2012,09,17,03,53,10.60
2012,09,17,03,54,10.60
2012,09,17,03,55,10.60
2012,09,17,03,56,10.60
2012,09,17,03,57,10.60
2012,09,17,03,58,10.60
2012,09,17,03,59,10.50
2012,09,17,04,00,10.40
2012,09,17,04,01,10.40
2012,09,17,04,02,10.40
2012,09,17,04,03,10.40
2012,09,17,04,04,10.30
2012,09,17,04,05,10.30
2012,09,17,04,06,10.30
2012,09,17,04,07,10.20
2012,09,17,04,08,10.20
2012,09,17,04,09,10.20
2012,09,17,04,10,10.20
2012,09,17,04,11,10.20
2012,09,17,04,12,10.20
2012,09,17,04,13,10.30
2012,09,17,04,14,10.30
2012,09,17,04,15,10.30
2012,09,17,04,16,10.30
2012,09,17,04,17,10.30
2012,09,17,04,18,10.30
2012,09,17,04,19,10.40
2012,09,17,04,20,10.40
2012,09,17,04,21,10.40
2012,09,17,04,22,10.40
2012,09,17,04,23,10.40
2012,09,17,04,24,10.40
2012,09,17,04,25,10.40
2012,09,17,04,26,10.40
2012,09,17,04,27,10.40
2012,09,17,04,28,10.40
2012,09,17,04,29,10.40
2012,09,17,04,30,10.40
2012,09,17,04,31,10.40
2012,09,17,04,32,10.40
2012,09,17,04,33,10.40
2012,09,17,04,34,10.40
2012,09,17,04,35,10.40
2012,09,17,04,36,10.40
2012,09,17,04,37,10.40
2012,09,17,04,38,10.40
2012,09,17,04,39,10.40
2012,09,17,04,40,10.40
2012,09,17,04,41,10.40
2012,09,17,04,42,10.40
2012,09,17,04,43,10.40
2012,09,17,04,44,10.40
2012,09,17,04,45,10.40
2012,09,17,04,46,10.40
2012,09,17,04,47,10.40
2012,09,17,04,48,10.40
2012,09,17,04,49,10.40
2012,09,17,04,50,10.30
2012,09,17,04,51,10.30
2012,09,17,04,52,10.30
2012,09,17,04,53,10.20
2012,09,17,04,54,10.20
2012,09,17,04,55,10.20
2012,09,17,04,56,10.20
2012,09,17,04,57,10.20
2012,09,17,04,58,10.20
2012,09,17,04,59,10.10
2012,09,17,05,00,10.10
2012,09,17,05,01,10.10
2012,09,17,05,02,10.20
2012,09,17,05,03,10.20
2012,09,17,05,04,10.20
2012,09,17,05,05,10.30
2012,09,17,05,06,10.30
2012,09,17,05,07,10.40
2012,09,17,05,08,10.40
2012,09,17,05,09,10.40
2012,09,17,05,10,10.40
2012,09,17,05,11,10.40
2012,09,17,05,12,10.50
2012,09,17,05,13,10.60
2012,09,17,05,14,10.60
2012,09,17,05,15,10.60
2012,09,17,05,16,10.60
2012,09,17,05,17,10.70
2012,09,17,05,18,10.70
2012,09,17,05,19,10.70
2012,09,17,05,20,10.80
2012,09,17,05,21,10.80
2012,09,17,05,22,10.80
2012,09,17,05,23,10.80
2012,09,17,05,24,10.80
2012,09,17,05,25,10.80
2012,09,17,05,26,10.80
2012,09,17,05,27,10.80
2012,09,17,05,28,10.80
2012,09,17,05,29,10.90
2012,09,17,05,30,10.90
2012,09,17,05,31,10.90
2012,09,17,05,32,10.90
2012,09,17,05,33,11.10
2012,09,17,05,34,11.10
2012,09,17,05,35,11.10
2012,09,17,05,36,11.10
2012,09,17,05,37,11.10
2012,09,17,05,38,11.10
2012,09,17,05,39,11.10
2012,09,17,05,40,11.10
2012,09,17,05,41,11.00
2012,09,17,05,42,10.90
2012,09,17,05,43,10.90
2012,09,17,05,44,10.90
2012,09,17,05,45,10.90
2012,09,17,05,46,10.90
2012,09,17,05,47,10.90
2012,09,17,05,48,10.80
2012,09,17,05,49,10.80
2012,09,17,05,50,10.70
2012,09,17,05,51,10.70
2012,09,17,05,52,10.70
2012,09,17,05,53,10.60
2012,09,17,05,54,10.60
2012,09,17,05,55,10.60
2012,09,17,05,56,10.60
2012,09,17,05,57,10.60
2012,09,17,05,58,10.60
2012,09,17,05,59,10.60
2012,09,17,06,00,10.60
2012,09,17,06,01,10.60
2012,09,17,06,02,10.60
2012,09,17,06,03,10.60
2012,09,17,06,04,10.70
2012,09,17,06,05,10.70
2012,09,17,06,06,10.70
2012,09,17,06,07,10.60
2012,09,17,06,08,10.60
2012,09,17,06,09,10.60
2012,09,17,06,10,10.60
2012,09,17,06,11,10.60
2012,09,17,06,12,10.50
2012,09,17,06,13,10.40
2012,09,17,06,14,10.40
2012,09,17,06,15,10.40
2012,09,17,06,16,10.40
2012,09,17,06,17,10.40
2012,09,17,06,18,10.30
2012,09,17,06,19,10.30
2012,09,17,06,20,10.20
2012,09,17,06,21,10.20
2012,09,17,06,22,10.20
2012,09,17,06,23,10.10
2012,09,17,06,24,10.10
2012,09,17,06,25,10.10
2012,09,17,06,26,10.10
2012,09,17,06,27,10.10
2012,09,17,06,28,10.10
2012,09,17,06,29,10.10
2012,09,17,06,30,10.10
2012,09,17,06,31,10.10
2012,09,17,06,32,10.10
2012,09,17,06,33,10.10
2012,09,17,06,34,10.10
2012,09,17,06,35,10.10
2012,09,17,06,36,10.10
2012,09,17,06,37,10.10
2012,09,17,06,38,10.10
2012,09,17,06,39,9.90
2012,09,17,06,40,9.90
2012,09,17,06,41,9.90
2012,09,17,06,42,9.90
2012,09,17,06,43,9.90
2012,09,17,06,44,9.90
2012,09,17,06,45,9.90
2012,09,17,06,46,9.90
2012,09,17,06,47,9.90
2012,09,17,06,48,9.90
2012,09,17,06,49,9.80
2012,09,17,06,50,9.80
2012,09,17,06,51,9.80
2012,09,17,06,52,9.80
2012,09,17,06,53,9.80
2012,09,17,06,54,9.80
2012,09,17,06,55,9.70
2012,09,17,06,56,9.70
2012,09,17,06,57,9.70
2012,09,17,06,58,9.70
2012,09,17,06,59,9.70
2012,09,17,07,00,9.70
2012,09,17,07,01,9.70
2012,09,17,07,02,9.70
2012,09,17,07,03,9.70
2012,09,17,07,04,9.70
2012,09,17,07,05,9.70
2012,09,17,07,06,9.70
2012,09,17,07,07,9.70
2012,09,17,07,08,9.70
2012,09,17,07,09,9.70
2012,09,17,07,10,9.70
2012,09,17,07,11,9.70
2012,09,17,07,12,9.70
2012,09,17,07,13,9.60
2012,09,17,07,14,9.60
2012,09,17,07,15,9.60
2012,09,17,07,16,9.60
2012,09,17,07,17,9.70
2012,09,17,07,18,9.70
2012,09,17,07,19,9.70
2012,09,17,07,20,9.70
2012,09,17,07,21,9.70
2012,09,17,07,22,9.80
2012,09,17,07,23,9.80
2012,09,17,07,24,9.90
2012,09,17,07,25,9.90
2012,09,17,07,26,9.90
2012,09,17,07,27,9.90
2012,09,17,07,28,9.90
2012,09,17,07,29,9.90
2012,09,17,07,30,9.90
2012,09,17,07,31,9.90
2012,09,17,07,32,9.90
2012,09,17,07,33,9.90
2012,09,17,07,34,9.90
2012,09,17,07,35,9.90
2012,09,17,07,36,10.10
2012,09,17,07,37,10.10
2012,09,17,07,38,10.10
2012,09,17,07,39,10.10
2012,09,17,07,40,10.10
2012,09,17,07,41,10.10
2012,09,17,07,42,10.20
2012,09,17,07,43,10.20
2012,09,17,07,44,10.20
2012,09,17,07,45,10.30
2012,09,17,07,46,10.40
2012,09,17,07,47,10.40
2012,09,17,07,48,10.60
2012,09,17,07,49,10.70
2012,09,17,07,50,10.80
2012,09,17,07,51,10.90
2012,09,17,07,52,11.00
2012,09,17,07,53,11.10
2012,09,17,07,54,11.30
2012,09,17,07,55,11.50
2012,09,17,07,56,11.70
2012,09,17,07,57,12.00
2012,09,17,07,58,12.20
2012,09,17,07,59,12.50
2012,09,17,08,00,12.70
2012,09,17,08,01,13.00
2012,09,17,08,02,13.20
2012,09,17,08,03,13.40
2012,09,17,08,04,13.60
2012,09,17,08,05,13.80
2012,09,17,08,06,14.00
2012,09,17,08,07,14.20
2012,09,17,08,08,14.30
2012,09,17,08,09,14.40
2012,09,17,08,10,14.50
2012,09,17,08,11,14.60
2012,09,17,08,12,14.70
2012,09,17,08,13,14.70
2012,09,17,08,14,14.80
2012,09,17,08,15,14.80
2012,09,17,08,16,14.80
2012,09,17,08,17,14.90
2012,09,17,08,18,14.90
2012,09,17,08,19,14.90
2012,09,17,08,20,15.00
2012,09,17,08,21,15.00
2012,09,17,08,22,15.10
2012,09,17,08,23,15.10
2012,09,17,08,24,15.10
2012,09,17,08,25,15.20
2012,09,17,08,26,15.20
2012,09,17,08,27,15.20
2012,09,17,08,28,15.30
2012,09,17,08,29,15.30
2012,09,17,08,30,15.30
2012,09,17,08,31,15.30
2012,09,17,08,32,15.30
2012,09,17,08,33,15.30
2012,09,17,08,34,15.40
2012,09,17,08,35,15.40
2012,09,17,08,36,15.40
2012,09,17,08,37,15.40
2012,09,17,08,38,15.40
2012,09,17,08,39,15.40
2012,09,17,08,40,15.50
2012,09,17,08,41,15.50
2012,09,17,08,42,15.50
2012,09,17,08,43,15.50
2012,09,17,08,44,15.50
2012,09,17,08,45,15.50
2012,09,17,08,46,15.50
2012,09,17,08,47,15.50
2012,09,17,08,48,15.60
2012,09,17,08,49,15.60
2012,09,17,08,50,15.60
2012,09,17,08,51,15.60
2012,09,17,08,52,15.60
2012,09,17,08,53,15.70
2012,09,17,08,54,15.70
2012,09,17,08,55,15.70
2012,09,17,08,56,15.80
2012,09,17,08,57,15.80
2012,09,17,08,58,15.80
2012,09,17,08,59,15.80
2012,09,17,09,00,15.80
2012,09,17,09,01,15.80
2012,09,17,09,02,15.90
2012,09,17,09,03,15.90
2012,09,17,09,04,15.90
2012,09,17,09,05,15.90
2012,09,17,09,06,16.00
2012,09,17,09,07,16.10
2012,09,17,09,08,16.10
2012,09,17,09,09,16.10
2012,09,17,09,10,16.10
2012,09,17,09,11,16.10
2012,09,17,09,12,16.10
2012,09,17,09,13,16.20
2012,09,17,09,14,16.20
2012,09,17,09,15,16.30
2012,09,17,09,16,16.30
2012,09,17,09,17,16.30
2012,09,17,09,18,16.40
2012,09,17,09,19,16.40
2012,09,17,09,20,16.40
2012,09,17,09,21,16.40
2012,09,17,09,22,16.40
2012,09,17,09,23,16.60
2012,09,17,09,24,16.60
2012,09,17,09,25,16.70
2012,09,17,09,26,16.70
2012,09,17,09,27,16.80
2012,09,17,09,28,16.80
2012,09,17,09,29,16.90
2012,09,17,09,30,17.00
2012,09,17,09,31,17.00
2012,09,17,09,32,17.10
2012,09,17,09,33,17.10
2012,09,17,09,34,17.20
2012,09,17,09,35,17.20
2012,09,17,09,36,17.20
2012,09,17,09,37,17.20
2012,09,17,09,38,17.10
2012,09,17,09,39,17.10
2012,09,17,09,40,17.10
2012,09,17,09,41,17.20
2012,09,17,09,42,17.20
2012,09,17,09,43,17.20
2012,09,17,09,44,17.20
2012,09,17,09,45,17.30
2012,09,17,09,46,17.30
2012,09,17,09,47,17.30
2012,09,17,09,48,17.30
2012,09,17,09,49,17.30
2012,09,17,09,50,17.30
2012,09,17,09,51,17.30
2012,09,17,09,52,17.40
2012,09,17,09,53,17.40
2012,09,17,09,54,17.50
2012,09,17,09,55,17.50
2012,09,17,09,56,17.60
2012,09,17,09,57,17.60
2012,09,17,09,58,17.60
2012,09,17,09,59,17.60
2012,09,17,10,00,17.50
2012,09,17,10,01,17.50
2012,09,17,10,02,17.60
2012,09,17,10,03,17.60
2012,09,17,10,04,17.60
2012,09,17,10,05,17.70
2012,09,17,10,06,17.70
2012,09,17,10,07,17.70
2012,09,17,10,08,17.80
2012,09,17,10,09,17.80
2012,09,17,10,10,17.70
2012,09,17,10,11,17.70
2012,09,17,10,12,17.70
2012,09,17,10,13,17.70
2012,09,17,10,14,17.60
2012,09,17,10,15,17.60
2012,09,17,10,16,17.60
2012,09,17,10,17,17.60
2012,09,17,10,18,17.60
2012,09,17,10,19,17.60
2012,09,17,10,20,17.60
2012,09,17,10,21,17.70
2012,09,17,10,22,17.70
2012,09,17,10,23,17.80
2012,09,17,10,24,17.90
2012,09,17,10,25,17.90
2012,09,17,10,26,18.00
2012,09,17,10,27,18.10
2012,09,17,10,28,18.20
2012,09,17,10,29,18.20
2012,09,17,10,30,18.30
2012,09,17,10,31,18.30
2012,09,17,10,32,18.40
2012,09,17,10,33,18.40
2012,09,17,10,34,18.50
2012,09,17,10,35,18.50
2012,09,17,10,36,18.60
2012,09,17,10,37,18.60
2012,09,17,10,38,18.60
2012,09,17,10,39,18.70
2012,09,17,10,40,18.70
2012,09,17,10,41,18.70
2012,09,17,10,42,18.70
2012,09,17,10,43,18.70
2012,09,17,10,44,18.70
2012,09,17,10,45,18.60
2012,09,17,10,46,18.60
2012,09,17,10,47,18.60
2012,09,17,10,48,18.50
2012,09,17,10,49,18.50
2012,09,17,10,50,18.50
2012,09,17,10,51,18.40
2012,09,17,10,52,18.40
2012,09,17,10,53,18.40
2012,09,17,10,54,18.50
2012,09,17,10,55,18.50
2012,09,17,10,56,18.60
2012,09,17,10,57,18.60
2012,09,17,10,58,18.70
2012,09,17,10,59,18.70
2012,09,17,11,00,18.80
2012,09,17,11,01,18.80
2012,09,17,11,02,18.90
2012,09,17,11,03,18.90
2012,09,17,11,04,18.90
2012,09,17,11,05,18.80
2012,09,17,11,06,18.80
2012,09,17,11,07,18.80
2012,09,17,11,08,18.90
2012,09,17,11,09,18.90
2012,09,17,11,10,18.90
2012,09,17,11,11,18.90
2012,09,17,11,12,19.00
2012,09,17,11,13,19.10
2012,09,17,11,14,19.00
2012,09,17,11,15,18.90
2012,09,17,11,16,18.90
2012,09,17,11,17,18.90
2012,09,17,11,18,18.90
2012,09,17,11,19,18.80
2012,09,17,11,20,18.80
2012,09,17,11,21,18.80
2012,09,17,11,22,18.80
2012,09,17,11,23,18.80
2012,09,17,11,24,18.80
2012,09,17,11,25,18.90
2012,09,17,11,26,18.90
2012,09,17,11,27,18.90
2012,09,17,11,28,19.00
2012,09,17,11,29,19.10
2012,09,17,11,30,19.10
2012,09,17,11,31,19.10
2012,09,17,11,32,19.10
2012,09,17,11,33,19.10
2012,09,17,11,34,19.20
2012,09,17,11,35,19.20
2012,09,17,11,36,19.30
2012,09,17,11,37,19.30
2012,09,17,11,38,19.30
2012,09,17,11,39,19.30
2012,09,17,11,40,19.40
2012,09,17,11,41,19.40
2012,09,17,11,42,19.40
2012,09,17,11,43,19.50
2012,09,17,11,44,19.50
2012,09,17,11,45,19.50
2012,09,17,11,46,19.60
2012,09,17,11,47,19.50
2012,09,17,11,48,19.40
2012,09,17,11,49,19.40
2012,09,17,11,50,19.30
2012,09,17,11,51,19.30
2012,09,17,11,52,19.30
2012,09,17,11,53,19.40
2012,09,17,11,54,19.40
2012,09,17,11,55,19.50
2012,09,17,11,56,19.50
2012,09,17,11,57,19.60
2012,09,17,11,58,19.60
2012,09,17,11,59,19.60
2012,09,17,12,00,19.70
2012,09,17,12,01,19.70
2012,09,17,12,02,19.70
2012,09,17,12,03,19.70
2012,09,17,12,04,19.70
2012,09,17,12,05,19.70
2012,09,17,12,06,19.60
2012,09,17,12,07,19.60
2012,09,17,12,08,19.60
2012,09,17,12,09,19.60
2012,09,17,12,10,19.70
2012,09,17,12,11,19.70
2012,09,17,12,12,19.80
2012,09,17,12,13,19.80
2012,09,17,12,14,19.80
2012,09,17,12,15,19.70
2012,09,17,12,16,19.70
2012,09,17,12,17,19.60
2012,09,17,12,18,19.60
2012,09,17,12,19,19.60
2012,09,17,12,20,19.70
2012,09,17,12,21,19.70
2012,09,17,12,22,19.80
2012,09,17,12,23,19.80
2012,09,17,12,24,19.80
2012,09,17,12,25,19.80
2012,09,17,12,26,19.70
2012,09,17,12,27,19.70
2012,09,17,12,28,19.70
2012,09,17,12,29,19.70
2012,09,17,12,30,19.70
2012,09,17,12,31,19.70
2012,09,17,12,32,19.70
2012,09,17,12,33,19.80
2012,09,17,12,34,19.90
2012,09,17,12,35,19.90
2012,09,17,12,36,20.00
2012,09,17,12,37,20.10
2012,09,17,12,38,20.20
2012,09,17,12,39,20.20
2012,09,17,12,40,20.10
2012,09,17,12,41,20.10
2012,09,17,12,42,19.90
2012,09,17,12,43,19.90
2012,09,17,12,44,19.90
2012,09,17,12,45,19.90
2012,09,17,12,46,20.00
2012,09,17,12,47,20.10
2012,09,17,12,48,20.10
2012,09,17,12,49,20.20
2012,09,17,12,50,20.20
2012,09,17,12,51,20.30
2012,09,17,12,52,20.40
2012,09,17,12,53,20.50
2012,09,17,12,54,20.60
2012,09,17,12,55,20.70
2012,09,17,12,56,20.70
2012,09,17,12,57,20.70
2012,09,17,12,58,20.60
2012,09,17,12,59,20.60
2012,09,17,13,00,20.50
2012,09,17,13,01,20.50
2012,09,17,13,02,20.40
2012,09,17,13,03,20.40
2012,09,17,13,04,20.30
2012,09,17,13,05,20.30
2012,09,17,13,06,20.30
2012,09,17,13,07,20.40
2012,09,17,13,08,20.40
2012,09,17,13,09,20.30
2012,09,17,13,10,20.30
2012,09,17,13,11,20.30
2012,09,17,13,12,20.20
2012,09,17,13,13,20.20
2012,09,17,13,14,20.20
2012,09,17,13,15,20.20
2012,09,17,13,16,20.20
2012,09,17,13,17,20.20
2012,09,17,13,18,20.20
2012,09,17,13,19,20.20
2012,09,17,13,20,20.20
2012,09,17,13,21,20.20
2012,09,17,13,22,20.20
2012,09,17,13,23,20.20
2012,09,17,13,24,20.30
2012,09,17,13,25,20.30
2012,09,17,13,26,20.30
2012,09,17,13,27,20.30
2012,09,17,13,28,20.20
2012,09,17,13,29,20.30
2012,09,17,13,30,20.30
2012,09,17,13,31,20.30
2012,09,17,13,32,20.30
2012,09,17,13,33,20.30
2012,09,17,13,34,20.40
2012,09,17,13,35,20.50
2012,09,17,13,36,20.50
2012,09,17,13,37,20.60
2012,09,17,13,38,20.60
2012,09,17,13,39,20.70
2012,09,17,13,40,20.80
2012,09,17,13,41,20.90
2012,09,17,13,42,20.90
2012,09,17,13,43,21.00
2012,09,17,13,44,21.00
2012,09,17,13,45,21.00
2012,09,17,13,46,21.00
2012,09,17,13,47,21.10
2012,09,17,13,48,21.20
2012,09,17,13,49,21.30
2012,09,17,13,50,21.30
2012,09,17,13,51,21.30
2012,09,17,13,52,21.50
2012,09,17,13,53,21.60
2012,09,17,13,54,21.60
2012,09,17,13,55,21.60
2012,09,17,13,56,21.60
2012,09,17,13,57,21.60
2012,09,17,13,58,21.60
2012,09,17,13,59,21.70
2012,09,17,14,00,21.70
2012,09,17,14,01,21.80
2012,09,17,14,02,21.80
2012,09,17,14,03,21.80
2012,09,17,14,04,21.70
2012,09,17,14,05,21.60
2012,09,17,14,06,21.60
2012,09,17,14,07,21.60
2012,09,17,14,08,21.60
2012,09,17,14,09,21.60
2012,09,17,14,10,21.60
2012,09,17,14,11,21.50
2012,09,17,14,12,21.40
2012,09,17,14,13,21.40
2012,09,17,14,14,21.40
2012,09,17,14,15,21.40
2012,09,17,14,16,21.40
2012,09,17,14,17,21.40
2012,09,17,14,18,21.40
2012,09,17,14,19,21.30
2012,09,17,14,20,21.30
2012,09,17,14,21,21.30
2012,09,17,14,22,21.20
2012,09,17,14,23,21.20
2012,09,17,14,24,21.30
2012,09,17,14,25,21.30
2012,09,17,14,26,21.30
2012,09,17,14,27,21.40
2012,09,17,14,28,21.40
2012,09,17,14,29,21.50
2012,09,17,14,30,21.60
2012,09,17,14,31,21.60
2012,09,17,14,32,21.60
2012,09,17,14,33,21.50
2012,09,17,14,34,21.50
2012,09,17,14,35,21.60
2012,09,17,14,36,21.60
2012,09,17,14,37,21.60
2012,09,17,14,38,21.70
2012,09,17,14,39,21.80
2012,09,17,14,40,21.80
2012,09,17,14,41,21.60
2012,09,17,14,42,21.60
2012,09,17,14,43,21.60
2012,09,17,14,44,21.60
2012,09,17,14,45,21.60
2012,09,17,14,46,21.60
2012,09,17,14,47,21.60
2012,09,17,14,48,21.60
2012,09,17,14,49,21.60
2012,09,17,14,50,21.40
2012,09,17,14,51,21.30
2012,09,17,14,52,21.30
2012,09,17,14,53,21.30
2012,09,17,14,54,21.30
2012,09,17,14,55,21.30
2012,09,17,14,56,21.30
2012,09,17,14,57,21.30
2012,09,17,14,58,21.30
2012,09,17,14,59,21.30
2012,09,17,15,00,21.30
2012,09,17,15,01,21.40
2012,09,17,15,02,21.50
2012,09,17,15,03,21.60
2012,09,17,15,04,21.60
2012,09,17,15,05,21.70
2012,09,17,15,06,21.80
2012,09,17,15,07,21.90
2012,09,17,15,08,22.00
2012,09,17,15,09,22.00
2012,09,17,15,10,22.10
2012,09,17,15,11,22.20
2012,09,17,15,12,22.20
2012,09,17,15,13,22.20
2012,09,17,15,14,22.10
2012,09,17,15,15,22.00
2012,09,17,15,16,22.00
2012,09,17,15,17,21.90
2012,09,17,15,18,21.90
2012,09,17,15,19,21.90
2012,09,17,15,20,21.90
2012,09,17,15,21,21.90
2012,09,17,15,22,22.00
2012,09,17,15,23,22.00
2012,09,17,15,24,22.10
2012,09,17,15,25,22.20
2012,09,17,15,26,22.20
2012,09,17,15,27,22.30
2012,09,17,15,28,22.40
2012,09,17,15,29,22.40
2012,09,17,15,30,22.40
2012,09,17,15,31,22.50
2012,09,17,15,32,22.50
2012,09,17,15,33,22.60
2012,09,17,15,34,22.70
2012,09,17,15,35,22.70
2012,09,17,15,36,22.80
2012,09,17,15,37,22.90
2012,09,17,15,38,22.90
2012,09,17,15,39,23.00
2012,09,17,15,40,23.10
2012,09,17,15,41,23.20
2012,09,17,15,42,23.20
2012,09,17,15,43,23.30
2012,09,17,15,44,23.30
2012,09,17,15,45,23.30
2012,09,17,15,46,23.30
2012,09,17,15,47,23.30
2012,09,17,15,48,23.30
2012,09,17,15,49,23.40
2012,09,17,15,50,23.40
2012,09,17,15,51,23.50
2012,09,17,15,52,23.70
2012,09,17,15,53,23.70
2012,09,17,15,54,23.70
2012,09,17,15,55,23.70
2012,09,17,15,56,23.70
2012,09,17,15,57,23.80
2012,09,17,15,58,23.80
2012,09,17,15,59,23.90
2012,09,17,16,00,23.90
2012,09,17,16,01,23.80
2012,09,17,16,02,23.80
2012,09,17,16,03,23.70
2012,09,17,16,04,23.60
2012,09,17,16,05,23.60
2012,09,17,16,06,23.70
2012,09,17,16,07,23.60
2012,09,17,16,08,23.50
2012,09,17,16,09,23.40
2012,09,17,16,10,23.40
2012,09,17,16,11,23.40
2012,09,17,16,12,23.30
2012,09,17,16,13,23.30
2012,09,17,16,14,23.30
2012,09,17,16,15,23.30
2012,09,17,16,16,23.30
2012,09,17,16,17,23.30
2012,09,17,16,18,23.40
2012,09,17,16,19,23.40
2012,09,17,16,20,23.40
2012,09,17,16,21,23.40
2012,09,17,16,22,23.40
2012,09,17,16,23,23.50
2012,09,17,16,24,23.60
2012,09,17,16,25,23.50
2012,09,17,16,26,23.50
2012,09,17,16,27,23.60
2012,09,17,16,28,23.60
2012,09,17,16,29,23.70
2012,09,17,16,30,23.70
2012,09,17,16,31,23.70
2012,09,17,16,32,23.80
2012,09,17,16,33,23.80
2012,09,17,16,34,23.80
2012,09,17,16,35,23.80
2012,09,17,16,36,23.90
2012,09,17,16,37,23.90
2012,09,17,16,38,24.10
2012,09,17,16,39,24.10
2012,09,17,16,40,24.10
2012,09,17,16,41,24.10
2012,09,17,16,42,24.10
2012,09,17,16,43,24.00
2012,09,17,16,44,23.90
2012,09,17,16,45,23.90
2012,09,17,16,46,24.10
2012,09,17,16,47,24.10
2012,09,17,16,48,24.10
2012,09,17,16,49,24.10
2012,09,17,16,50,24.10
2012,09,17,16,51,24.20
2012,09,17,16,52,24.20
2012,09,17,16,53,24.10
2012,09,17,16,54,24.10
2012,09,17,16,55,24.00
2012,09,17,16,56,23.90
2012,09,17,16,57,23.90
2012,09,17,16,58,23.80
2012,09,17,16,59,23.70
2012,09,17,17,00,23.70
2012,09,17,17,01,23.70
2012,09,17,17,02,23.70
2012,09,17,17,03,23.80
2012,09,17,17,04,23.90
2012,09,17,17,05,24.00
2012,09,17,17,06,24.10
2012,09,17,17,07,24.10
2012,09,17,17,08,24.10
2012,09,17,17,09,24.10
2012,09,17,17,10,24.10
2012,09,17,17,11,24.10
2012,09,17,17,12,24.20
2012,09,17,17,13,24.20
2012,09,17,17,14,24.20
2012,09,17,17,15,24.30
2012,09,17,17,16,24.30
2012,09,17,17,17,24.30
2012,09,17,17,18,24.30
2012,09,17,17,19,24.30
2012,09,17,17,20,24.30
2012,09,17,17,21,24.40